Theta_e
300 302 304 307 308 306 305 306 308 309 310 309 307 305 302 301 296 295 298 305 304 306 313 317 319 321 321 324 325 327 329 331 331 330 331 332 332 333 333 335 335 335 334 335 336 338 338 339 339 339 339 340 341 341 341 341 346 351 351 350 350 350 351 350 350 350 351 351 352 352 354 351 350 348 349 348 349 350 351 350 351 349 350 349 348 348 350
299 300 304 306 305 305 305 305 306 309 311 309 309 308 309 305 301 301 303 306 307 311 315 319 321 323 324 325 327 329 330 330 330 331 331 332 332 332 332 334 335 336 336 336 336 338 337 337 338 339 339 339 340 342 342 343 342 346 350 349 349 349 349 349 349 348 348 349 349 350 350 349 347 346 347 347 347 348 349 350 350 349 348 348 348 348 350
297 299 303 305 305 304 303 304 305 307 311 311 311 311 312 312 308 310 308 308 308 314 318 322 324 326 327 327 327 328 328 329 331 331 332 332 332 332 331 331 334 336 336 336 338 338 337 337 338 339 339 340 341 342 342 342 341 343 348 348 348 346 344 343 343 344 345 346 346 347 347 347 346 344 345 346 346 347 348 348 348 349 348 347 348 349 350
293 297 299 300 303 303 303 303 303 304 309 307 309 308 311 307 305 307 306 305 306 315 322 324 324 325 326 325 327 328 329 330 331 332 333 333 332 332 332 332 333 335 335 335 337 337 338 338 339 339 339 340 340 341 342 343 343 343 344 345 344 341 340 340 340 340 341 343 344 344 346 346 346 344 345 346 346 346 346 346 346 348 347 347 347 348 349
293 297 299 300 300 297 295 299 302 304 310 310 311 312 314 313 311 306 305 307 315 318 321 321 322 325 326 326 327 328 329 329 330 332 332 333 333 332 332 334 334 334 335 335 336 337 338 339 339 340 341 340 340 341 340 339 341 341 341 342 342 341 341 342 341 341 342 343 343 344 344 346 344 345 344 345 345 345 345 347 349 348 346 346 345 346 346
293 295 300 300 293 288 289 301 308 307 310 309 308 308 311 314 316 312 316 318 321 321 321 322 322 323 324 325 327 330 331 330 330 331 332 331 331 332 332 332 332 332 334 335 337 337 337 338 340 340 341 340 341 341 341 341 340 340 340 340 340 341 341 341 341 342 342 342 342 344 346 346 344 343 344 344 345 346 348 349 347 346 344 342 341 340 339
291 296 296 292 287 289 299 307 309 309 312 313 310 311 312 314 317 318 319 320 321 322 323 323 324 325 326 327 327 329 331 331 330 329 330 330 330 330 330 331 331 330 332 336 337 338 339 339 339 340 341 341 340 340 340 340 340 340 339 338 338 339 339 340 341 341 341 340 339 339 342 343 343 344 345 345 345 345 346 346 345 343 340 337 337 337 333
292 292 292 285 287 298 306 306 308 311 310 310 311 308 312 314 316 318 317 320 323 323 323 324 325 324 325 327 328 328 330 330 329 328 328 329 330 328 328 328 328 329 329 333 337 337 340 340 340 340 340 341 340 339 341 340 340 340 338 337 337 337 337 339 340 340 340 338 339 342 342 341 341 341 341 343 343 346 346 345 345 343 339 337 334 331 330
289 290 289 293 298 301 301 302 303 305 302 304 302 299 305 313 316 317 316 318 319 321 321 322 323 325 325 322 323 329 329 329 330 330 330 330 329 330 330 329 328 328 329 331 333 336 337 338 338 338 340 341 341 341 340 340 340 340 339 337 337 338 338 338 339 340 341 341 341 342 342 341 341 342 342 342 343 345 343 344 342 339 337 334 333 331 331
295 290 289 289 289 290 295 301 307 310 310 310 309 305 303 315 316 318 318 317 318 319 321 322 323 324 319 315 318 325 327 328 327 328 328 329 330 330 330 331 330 329 330 333 334 334 335 336 337 337 339 340 340 339 339 340 340 339 339 338 338 338 338 341 342 341 340 340 340 340 341 340 341 342 342 343 343 346 343 342 340 338 336 334 333 333 330
292 291 288 284 285 289 295 301 308 311 312 313 312 305 299 313 316 317 318 317 318 319 319 319 319 315 310 311 317 324 325 325 327 326 328 329 329 330 330 330 330 331 331 333 334 334 335 334 335 337 337 338 338 337 338 338 338 338 338 339 339 339 341 342 342 341 340 341 341 341 342 341 342 341 341 341 344 343 343 342 341 339 336 332 331 331 331
292 288 286 287 289 293 302 306 310 313 314 312 304 292 293 305 317 318 318 316 317 318 318 319 316 312 308 310 317 325 325 325 327 327 327 327 328 329 330 331 332 333 334 332 331 332 332 333 336 336 337 336 336 335 336 336 336 336 337 337 339 340 341 342 342 341 341 342 342 342 341 342 342 342 343 343 343 343 343 342 339 337 336 332 329 328 327
294 295 289 290 294 301 306 308 313 314 314 303 294 288 296 308 316 317 316 317 317 318 317 316 313 316 317 319 324 325 325 324 323 325 327 328 329 328 329 330 333 330 331 331 331 331 332 334 336 337 336 334 332 333 334 335 334 334 335 336 337 338 339 340 341 341 341 341 340 340 340 340 341 341 340 340 341 340 338 337 335 333 331 330 328 328 329
290 288 288 291 291 297 307 313 314 313 305 293 290 299 309 313 314 315 316 315 318 318 317 315 316 319 324 326 325 324 323 322 321 323 326 328 329 330 331 331 330 329 329 329 330 331 331 332 333 334 333 332 332 331 330 329 330 331 332 334 335 335 335 336 337 337 337 338 339 339 339 338 336 336 337 338 337 336 335 333 331 330 331 331 328 328 329
291 288 287 286 286 298 312 312 308 309 298 295 302 312 316 317 314 314 315 316 317 319 318 320 320 323 324 324 323 323 321 320 320 321 323 323 323 324 324 325 329 327 325 326 327 328 330 331 332 333 333 332 331 330 328 329 330 331 332 332 333 333 334 333 334 334 335 335 334 334 334 335 334 334 335 335 334 334 331 330 330 329 328 328 327 325 325
287 284 285 286 293 300 312 308 301 308 309 310 311 313 312 316 315 314 314 316 318 320 320 320 319 319 320 321 321 320 319 318 317 317 317 317 318 321 324 325 326 327 324 325 325 327 328 330 331 332 332 331 330 329 328 330 331 332 331 332 333 333 333 331 331 332 331 331 330 330 330 331 332 332 333 334 334 332 331 330 328 327 327 326 326 325 324
293 290 290 298 302 307 311 313 312 313 315 315 315 315 315 315 314 315 314 316 318 321 320 318 317 317 318 319 320 318 316 315 315 315 314 316 318 319 321 323 325 324 322 322 323 324 325 326 328 330 332 331 330 329 330 332 332 331 332 333 332 332 332 333 334 333 333 332 332 331 330 330 331 332 331 331 329 329 330 328 328 327 326 327 325 325 325
306 306 306 309 310 310 313 317 316 317 317 316 317 316 315 315 315 316 316 317 318 320 318 316 315 316 317 318 318 318 317 315 315 317 316 317 318 318 319 319 321 320 320 321 321 321 321 322 324 327 327 330 328 328 330 332 330 331 331 330 331 330 332 333 333 334 333 332 333 333 333 332 333 331 330 331 329 328 328 329 328 328 328 327 326 325 324
293 294 302 307 309 310 313 315 318 319 318 316 315 315 315 316 317 319 320 319 318 319 317 316 316 317 318 317 317 318 316 316 315 316 316 316 317 317 316 316 318 317 317 318 319 319 319 319 321 323 324 325 326 327 328 328 329 329 330 331 332 329 328 328 328 329 327 326 326 326 325 323 324 328 329 330 331 331 329 327 328 330 331 330 328 326 324
293 296 303 308 309 309 310 311 312 314 315 316 317 316 317 317 319 320 320 320 319 318 316 316 317 316 317 316 315 316 316 316 316 316 316 316 316 316 316 316 316 314 314 314 315 316 316 314 317 320 320 320 320 321 324 327 327 328 329 329 326 326 326 327 328 328 330 334 325 319 318 318 318 318 320 322 322 323 323 324 327 328 331 331 328 327 323
303 304 306 306 308 310 310 313 312 313 314 314 316 317 318 320 320 320 320 319 317 316 315 315 316 315 315 315 315 315 314 315 315 315 315 315 315 314 315 314 315 313 313 313 312 314 313 313 314 316 317 318 318 319 321 323 325 327 328 330 326 324 325 328 330 331 326 323 320 316 314 312 310 309 310 313 316 315 315 313 318 324 326 325 329 325 322
296 298 303 304 301 299 307 311 313 314 315 316 315 316 318 319 319 318 319 319 319 319 317 316 316 315 314 314 314 314 313 314 314 315 315 315 315 315 314 315 314 315 315 313 313 313 312 312 314 315 316 317 317 320 320 320 323 326 326 324 322 322 323 325 324 325 322 320 319 318 315 313 312 311 309 301 304 314 314 313 308 303 309 320 322 320 315
298 302 305 304 303 303 306 310 313 315 315 315 316 314 315 316 317 317 318 317 317 318 318 318 318 316 316 315 315 315 313 313 314 315 316 316 315 315 315 314 312 312 312 314 313 313 312 315 316 316 315 316 316 318 319 319 320 320 320 321 320 321 324 323 324 326 321 319 318 315 315 314 313 313 311 310 297 299 306 308 302 296 297 302 309 314 320
304 306 307 307 305 306 309 311 313 315 314 317 316 315 316 317 318 318 318 318 317 317 318 319 320 318 317 315 315 315 314 315 315 315 315 316 316 316 316 315 314 314 313 313 313 314 313 314 314 315 316 315 315 318 316 317 317 318 319 319 317 318 319 324 327 324 318 320 319 316 313 313 314 313 312 311 310 301 297 300 300 295 295 296 298 301 306
306 307 309 308 308 310 311 312 313 315 317 318 317 316 317 318 319 320 319 318 319 319 317 317 318 318 318 316 316 315 315 315 316 317 318 319 318 316 316 316 314 313 313 313 312 312 312 312 313 315 314 316 317 318 317 317 317 318 317 317 316 315 320 326 325 327 323 321 320 316 315 315 315 312 311 311 311 310 310 297 295 295 295 295 294 295 296
311 311 311 311 311 311 312 315 315 315 315 317 318 318 322 323 320 320 319 319 318 318 317 317 317 318 319 318 316 317 317 317 320 320 316 316 318 318 317 317 317 315 313 312 313 313 313 315 314 314 315 316 317 317 319 317 318 317 316 316 316 318 319 321 321 321 319 320 318 315 315 314 313 313 315 314 311 312 312 311 311 305 298 295 294 297 294
312 313 312 311 310 308 308 310 309 313 316 317 318 317 318 320 323 319 318 318 318 319 318 317 317 318 319 321 323 319 319 322 320 316 315 316 317 316 317 318 318 318 317 314 313 316 319 318 317 315 315 316 316 319 318 317 316 315 315 316 316 328 331 328 318 318 317 317 316 315 315 317 317 319 320 318 318 316 313 313 313 312 310 311 301 295 301
313 312 313 309 306 307 308 310 313 314 315 315 315 314 314 315 316 316 316 316 316 316 316 315 316 316 316 316 315 316 317 318 317 318 316 316 318 319 317 317 318 318 317 316 315 318 321 317 316 315 314 314 315 317 317 316 316 315 314 315 317 318 322 325 320 317 316 317 314 316 316 315 318 319 321 322 320 318 314 316 315 312 310 309 310 307 299
310 308 309 310 310 310 310 310 311 312 312 312 313 312 313 312 311 311 311 312 312 312 312 312 314 315 315 315 315 316 315 315 316 317 318 318 319 318 317 317 317 318 317 317 315 317 316 313 313 313 314 313 314 317 317 316 315 316 317 315 315 316 317 316 315 316 315 314 314 315 321 321 320 319 322 323 322 319 318 318 319 315 310 310 310 311 311
308 309 311 310 310 311 311 309 308 309 310 310 310 309 310 310 309 308 308 308 307 307 306 307 308 310 312 312 314 317 318 317 317 317 317 318 317 318 317 316 316 315 315 315 314 314 314 313 312 311 313 312 315 316 317 315 315 314 314 314 314 315 315 314 314 315 314 313 315 324 321 316 315 316 318 317 320 322 319 319 321 316 310 309 315 311 310
309 310 309 308 308 308 307 306 306 307 308 308 308 307 306 307 305 304 304 304 304 304 305 306 306 306 307 308 308 310 312 312 313 314 314 316 317 317 318 316 316 315 315 314 313 314 315 314 312 313 313 311 314 315 316 315 314 314 313 311 312 318 320 323 321 313 312 317 318 316 316 315 314 316 316 314 317 316 314 315 318 317 314 311 313 311 311
309 308 307 307 307 305 304 304 306 306 306 306 306 305 304 304 303 303 304 304 303 304 304 305 305 306 306 306 307 307 307 308 308 309 309 310 312 315 316 315 318 324 316 315 314 315 314 313 314 315 314 313 314 315 316 315 314 313 311 320 313 312 316 324 320 318 319 320 319 316 318 312 309 312 317 317 314 314 311 311 312 313 312 312 313 312 311
307 305 303 304 305 304 303 302 304 303 304 305 304 304 303 304 304 305 305 305 305 305 305 304 304 304 305 306 306 305 305 306 307 307 307 307 308 309 312 317 314 314 316 316 318 318 316 315 316 315 315 314 314 314 316 316 315 314 312 313 312 311 320 320 319 317 319 320 317 314 314 315 312 313 311 314 314 315 309 311 312 316 315 314 312 309 311
309 308 307 307 306 305 303 302 302 302 302 302 303 303 303 304 305 305 305 306 304 304 304 304 304 305 306 306 305 306 306 306 305 305 304 305 306 307 308 309 312 314 314 314 314 315 314 314 314 315 316 316 315 315 314 314 313 314 313 311 311 310 314 314 314 314 315 318 316 319 315 314 313 310 314 315 315 312 313 313 316 315 312 311 307 308 307
313 310 310 308 307 307 306 304 302 302 302 301 301 302 302 303 303 304 308 305 304 303 303 305 305 305 305 304 304 304 304 303 302 302 303 304 304 305 305 307 308 309 310 311 311 311 313 314 314 317 317 317 316 316 316 315 314 312 312 313 315 313 312 315 313 313 313 314 314 311 312 311 311 317 317 314 312 314 314 314 313 312 309 307 307 307 307
310 309 308 306 306 306 305 304 304 303 303 302 302 302 303 304 304 304 305 303 302 303 303 303 303 303 303 302 303 303 302 302 302 302 302 303 303 303 304 305 305 306 306 306 308 309 311 312 322 327 316 315 317 316 317 318 317 314 314 314 315 316 316 315 314 313 314 312 311 311 310 314 315 314 315 312 312 312 311 311 311 310 308 307 307 306 303
310 309 307 305 304 304 303 303 303 302 302 302 303 305 304 304 304 303 304 302 302 302 301 302 303 302 300 300 301 301 301 301 302 301 302 302 302 303 303 303 303 304 304 303 305 308 308 310 323 326 321 316 316 314 316 325 316 314 315 315 314 315 314 313 313 310 309 311 312 311 313 314 311 310 316 309 309 308 309 309 312 309 308 308 307 306 303
306 307 305 304 303 303 302 302 304 305 306 306 306 307 305 303 303 303 303 303 303 303 303 302 302 301 301 302 300 300 301 302 301 300 301 300 301 301 300 301 302 302 302 302 304 307 306 314 322 320 315 313 313 314 317 324 327 316 312 312 313 314 315 313 313 313 311 307 313 310 310 310 308 307 308 308 307 308 309 310 311 309 307 307 306 304 304
304 304 304 304 304 304 304 304 305 305 305 304 303 303 305 306 304 302 302 302 301 303 301 300 299 299 299 300 300 299 300 300 302 301 300 299 302 301 301 301 301 302 304 303 305 306 310 315 312 311 311 310 310 311 315 320 322 314 312 312 312 312 312 313 311 311 311 310 308 307 308 309 309 308 307 307 305 308 313 311 310 310 307 306 305 304 304
303 303 304 304 304 304 304 303 303 303 303 304 304 303 303 303 302 301 300 301 303 304 300 298 299 301 301 301 300 298 299 299 300 300 300 300 300 299 300 301 302 302 304 313 308 304 314 320 310 304 307 308 308 310 313 318 319 315 312 311 312 311 311 312 311 309 308 308 308 312 308 309 309 310 309 308 307 307 307 309 308 307 306 305 303 303 304
303 304 304 304 304 303 303 303 302 302 302 302 302 302 302 302 301 300 300 301 302 301 298 299 300 302 301 300 299 298 298 301 302 301 300 299 299 298 299 299 302 303 303 305 304 308 312 315 310 304 306 308 307 314 313 316 312 309 309 309 311 311 312 311 311 311 311 310 310 307 307 307 308 310 310 309 308 307 308 307 306 305 305 304 303 302 302
304 304 304 304 303 303 302 302 302 302 301 302 304 302 301 301 302 301 301 301 301 301 300 300 307 302 299 299 300 302 301 300 300 300 300 301 301 299 298 300 302 302 311 314 314 310 306 305 307 308 304 304 308 317 319 314 308 307 308 309 311 312 312 312 313 312 311 310 309 308 308 308 307 307 309 309 308 307 306 305 304 304 303 303 302 301 301
304 304 303 303 303 302 302 302 302 301 301 300 300 300 300 299 300 300 301 301 301 301 301 299 302 306 305 302 301 300 300 300 299 300 300 301 300 301 301 302 303 304 312 312 307 302 302 301 302 302 311 312 310 314 316 309 307 306 307 308 311 311 312 312 311 311 310 309 308 306 306 306 305 306 307 307 307 306 305 304 302 302 303 301 301 301 301
305 304 304 303 303 303 302 302 301 301 300 299 299 299 300 300 300 302 301 302 302 303 301 299 299 299 301 301 300 299 300 299 299 300 298 299 302 301 301 302 302 306 313 311 308 306 303 303 302 305 314 316 316 315 311 306 304 305 305 307 309 309 310 310 310 310 309 309 309 308 308 308 307 306 306 306 305 304 304 303 302 301 301 300 300 300 299
304 304 304 303 303 303 301 301 300 300 300 300 300 300 300 300 300 301 302 302 303 303 306 303 301 301 300 301 301 300 300 300 300 300 298 299 299 300 301 311 308 309 310 314 308 307 304 301 306 314 315 315 314 315 306 303 302 304 304 306 306 307 308 308 309 308 309 308 308 308 309 308 308 307 306 306 307 304 304 302 301 301 301 299 299 298 298
304 304 304 307 302 301 301 301 301 301 301 301 300 302 301 299 299 301 302 302 302 303 302 302 302 301 301 300 301 301 300 300 299 300 300 300 299 300 305 312 310 314 314 314 306 304 301 312 314 314 314 313 314 310 303 304 305 302 302 303 304 306 306 306 307 307 307 307 306 306 305 305 305 303 301 301 302 304 304 303 302 301 300 299 298 299 299
304 303 303 302 301 301 301 301 302 302 300 299 299 297 301 301 301 300 301 301 300 300 300 301 301 300 300 300 300 300 299 299 300 300 302 302 304 307 309 311 313 313 312 305 305 304 305 306 311 312 311 312 312 305 302 301 301 301 301 302 303 304 305 305 305 305 305 304 305 306 307 304 300 300 303 304 302 302 302 301 300 298 299 301 300 301 300
303 303 302 301 301 301 301 302 301 299 298 299 298 299 300 299 300 300 299 300 300 300 300 301 302 301 301 301 300 301 300 299 298 297 300 301 301 301 303 302 307 312 311 311 307 308 310 309 309 309 310 310 302 296 297 298 299 299 299 300 299 300 301 302 301 302 301 301 302 299 299 300 299 300 301 301 301 302 302 301 300 300 301 301 299 299 299
303 302 302 302 301 301 301 300 300 301 298 299 300 298 300 300 299 299 298 299 300 300 298 298 298 299 301 305 303 300 304 305 300 299 302 303 300 301 302 306 309 310 307 303 301 299 306 307 307 308 308 306 296 295 295 297 299 301 300 299 299 299 299 300 299 299 299 300 300 300 299 299 299 300 300 301 301 301 302 301 300 300 299 299 299 299 299
302 302 301 301 300 300 300 300 299 298 298 301 298 298 301 300 298 297 300 298 300 302 296 297 297 297 296 297 298 300 300 303 304 303 303 303 302 301 302 302 305 307 307 302 301 300 303 305 305 306 303 297 297 299 299 300 298 300 300 299 301 299 301 302 305 305 303 303 303 302 301 301 299 301 302 301 301 301 301 301 300 301 302 301 299 298 298
302 302 301 302 301 301 301 301 300 300 299 301 299 300 302 300 299 301 300 301 300 300 296 296 296 297 297 298 298 299 301 301 303 306 303 302 302 305 304 302 301 304 302 301 298 296 295 295 298 301 299 300 298 300 300 299 299 300 301 300 300 301 301 302 302 303 303 303 302 302 302 301 300 300 299 301 301 301 300 301 301 301 299 299 298 298 297
303 301 301 301 301 301 300 299 300 301 301 301 299 302 301 301 301 300 300 308 300 299 298 298 296 297 297 298 301 299 301 302 303 301 305 304 302 300 302 304 300 301 298 297 296 295 296 298 304 305 305 299 298 299 305 305 300 300 300 303 304 302 303 302 303 302 302 303 302 302 302 301 301 300 300 300 301 301 301 300 300 299 299 298 298 298 297
Wind_Speed
7 3 2 2 6 5 3 7 10 12 8 8 7 4 2 3 7 9 6 6 3 2 2 3 5 5 4 3 2 1 3 4 5 7 9 10 10 9 9 8 8 9 11 11 10 10 10 9 7 6 6 5 6 9 7 9 8 10 10 10 10 10 9 9 9 8 7 7 6 7 7 6 5 5 7 6 6 5 6 7 6 7 7 7 7 7 6
4 7 6 5 6 5 10 10 10 9 9 8 7 4 4 2 4 4 2 5 2 2 1 3 3 3 4 4 4 3 4 4 5 6 7 8 8 8 9 9 9 8 8 8 9 9 10 11 10 9 8 8 8 9 8 9 6 9 8 10 10 9 9 8 7 5 5 5 6 6 6 6 6 6 6 6 7 7 7 7 7 6 6 6 6 6 5
4 6 4 6 9 8 7 11 14 13 9 8 10 8 10 7 1 4 3 6 4 5 2 4 3 6 6 6 5 4 3 4 5 6 6 6 6 6 5 4 6 8 10 9 8 8 9 11 12 11 10 10 9 8 7 9 12 10 7 9 6 5 4 4 4 1 2 3 4 5 6 5 4 6 6 6 7 7 7 7 7 6 6 6 6 5 5
5 3 3 4 2 4 8 12 15 15 14 11 10 9 7 3 4 4 3 5 5 4 4 6 6 8 8 6 5 4 4 4 4 5 7 6 6 7 7 6 3 4 7 9 10 11 10 11 11 10 10 11 9 10 6 3 2 2 4 6 9 8 8 7 5 1 1 1 1 2 3 5 5 5 6 6 7 8 7 8 6 5 5 6 5 4 4
2 9 3 2 3 5 6 8 7 6 4 2 3 9 13 10 4 2 3 1 3 0 1 7 8 10 9 7 5 5 4 3 3 4 5 5 5 4 4 4 4 3 6 7 3 1 4 7 9 9 11 11 11 7 6 4 5 4 7 2 8 8 8 9 8 7 3 5 5 4 2 1 0 4 5 5 6 6 8 7 5 6 6 5 5 4 5
3 5 4 2 3 2 2 3 0 3 2 7 10 7 11 14 10 3 0 3 4 5 7 10 10 9 6 5 5 4 3 3 4 4 3 4 5 6 6 6 4 3 3 5 7 5 2 2 3 2 1 2 4 6 7 6 6 6 3 8 2 8 8 8 7 6 6 6 7 6 5 5 4 1 1 5 5 4 5 5 6 5 4 4 4 4 4
3 0 4 1 1 3 4 3 1 3 1 8 12 12 14 12 10 10 10 10 11 8 7 10 11 10 9 9 9 7 6 5 5 5 4 3 2 4 5 5 4 4 3 7 8 9 9 8 6 5 5 5 4 5 4 5 4 7 7 3 7 4 8 8 7 7 5 4 6 5 2 4 5 6 5 6 2 1 3 4 6 6 6 6 4 4 5
2 4 3 1 3 3 3 5 2 3 3 4 3 5 11 10 9 5 8 9 8 9 9 8 7 9 9 10 9 8 7 6 4 5 4 4 4 4 4 3 5 4 2 5 8 8 8 9 7 6 7 6 6 7 6 6 5 5 6 4 4 5 5 7 6 5 6 9 9 8 5 4 6 6 6 6 6 9 3 3 3 5 5 5 6 6 5
3 2 4 3 3 2 3 2 4 4 2 5 2 1 2 4 6 5 6 9 9 9 9 8 6 6 7 10 8 9 9 8 7 6 4 4 6 5 5 5 6 6 4 2 3 4 5 5 7 8 6 6 7 7 7 7 7 6 8 8 7 6 4 5 5 5 6 7 7 6 4 4 6 7 7 7 7 5 6 7 2 5 5 5 4 5 5
4 6 3 2 2 1 4 1 3 1 2 3 3 4 1 4 5 1 6 5 6 7 6 5 4 6 9 9 5 6 8 7 6 6 5 6 5 5 5 5 5 4 3 4 5 6 8 7 7 6 5 4 6 8 7 6 7 6 6 7 6 5 4 5 6 6 5 6 7 7 4 4 4 5 5 6 7 7 7 2 5 2 6 6 5 5 5
3 4 5 2 4 4 3 5 6 7 3 3 1 2 2 3 1 3 4 4 2 3 3 0 1 5 4 5 6 2 3 3 4 3 4 4 4 3 3 3 4 4 4 5 7 6 9 9 5 6 7 7 7 6 6 6 5 6 6 6 4 3 3 4 5 5 5 6 9 10 8 6 6 6 5 5 5 6 7 7 5 0 3 6 6 6 6
1 4 3 2 3 1 1 5 5 7 7 3 4 1 2 3 4 4 2 4 4 4 2 2 4 5 3 6 4 3 3 2 2 3 3 3 4 4 3 4 3 3 3 6 6 4 5 6 5 6 6 4 5 6 6 6 5 5 5 6 5 4 4 4 5 5 4 5 5 7 7 6 6 6 6 5 5 7 6 6 5 4 5 6 8 7 6
2 5 0 2 2 3 3 4 8 8 4 2 3 3 3 3 5 6 3 5 4 3 3 1 2 3 1 4 7 7 4 4 3 3 4 5 5 5 4 4 3 4 4 5 6 5 4 4 5 5 5 7 7 6 7 6 3 4 5 6 6 5 4 5 5 4 4 4 5 4 4 6 6 7 5 6 6 6 7 7 7 6 7 7 7 7 6
2 1 4 2 3 4 3 5 5 4 1 2 3 4 2 3 4 4 3 2 1 1 3 2 1 1 2 9 7 6 5 4 3 4 5 6 5 5 5 5 4 5 6 7 6 7 6 7 6 5 6 8 7 6 6 8 7 6 6 5 5 6 7 7 6 5 4 4 3 5 5 4 6 6 5 5 5 7 6 7 9 8 7 6 6 6 6
2 3 4 1 1 1 2 9 2 2 1 3 2 1 2 1 2 4 1 3 2 2 2 2 4 7 8 9 6 3 4 5 5 5 5 5 5 5 4 3 3 4 5 6 6 6 6 6 5 6 8 8 7 7 8 8 6 5 5 6 7 7 7 7 6 5 4 4 4 4 4 3 5 6 6 6 5 6 8 8 8 8 7 6 6 7 6
2 2 2 2 2 2 4 2 2 2 1 1 4 3 1 2 1 2 3 2 2 2 4 6 4 5 9 7 6 4 4 4 3 5 5 5 5 6 5 5 4 4 5 5 6 6 5 5 4 3 7 8 7 9 8 6 6 6 6 6 7 7 7 7 6 6 6 6 5 5 6 5 6 7 6 6 6 6 7 8 8 7 6 6 5 5 6
1 2 3 2 3 3 3 1 1 0 2 2 4 3 3 3 2 1 2 2 2 4 6 5 6 7 6 9 7 4 3 4 3 4 4 5 5 5 5 4 3 4 5 5 6 6 5 6 5 4 4 8 9 9 6 5 5 6 6 6 7 7 7 7 7 6 6 6 6 6 5 5 6 6 6 6 6 5 5 6 7 7 6 6 5 5 4
1 1 2 0 2 2 3 3 1 2 0 2 0 3 2 1 1 0 2 2 2 4 4 9 4 5 6 9 8 9 8 5 4 4 5 5 5 5 5 5 4 4 4 5 6 6 6 6 6 5 5 5 9 5 4 5 4 5 5 6 6 7 6 6 6 7 8 7 7 6 6 5 5 4 4 4 5 4 4 5 5 6 6 6 6 5 3
4 0 3 3 0 1 2 2 3 3 2 1 1 2 1 1 1 2 2 3 3 3 3 4 8 7 6 6 3 3 8 7 5 5 5 4 4 5 5 3 4 4 4 5 5 5 6 5 5 5 6 6 5 4 4 4 4 3 4 5 6 6 6 5 5 5 7 6 6 6 6 6 5 5 4 4 3 3 4 4 4 5 5 5 5 4 4
1 2 1 1 1 0 1 0 1 2 2 3 3 2 1 2 3 3 3 3 4 3 5 4 8 6 5 6 5 5 5 5 5 5 6 6 6 5 4 4 4 4 4 4 4 4 4 3 4 4 5 5 4 5 5 5 5 5 5 4 4 5 5 5 5 5 6 9 8 6 6 6 5 5 5 4 4 4 2 3 5 5 5 5 5 5 5
0 1 1 1 2 4 4 3 2 1 1 2 3 3 3 4 6 5 5 4 3 3 5 4 6 7 4 4 6 6 4 4 4 5 6 5 6 5 5 3 4 5 4 4 3 4 2 2 3 4 3 3 3 4 4 4 4 6 5 4 5 5 4 5 6 5 5 5 6 6 6 6 6 5 4 4 4 4 3 3 2 2 6 5 4 4 5
1 4 4 4 3 1 0 0 1 3 1 3 3 3 4 4 4 4 6 6 5 6 4 4 5 7 5 4 6 6 4 5 5 6 6 6 6 4 3 3 4 4 4 4 4 4 2 2 3 3 3 2 3 3 4 4 4 5 4 4 4 5 4 5 6 6 5 5 4 5 6 6 6 6 9 8 6 3 2 6 6 6 3 2 5 6 6
5 7 4 3 2 3 2 3 2 3 2 3 4 3 3 3 3 3 7 7 6 6 4 3 5 5 6 5 6 6 4 3 2 4 7 7 5 5 4 4 3 4 3 3 4 4 2 2 3 2 2 1 2 2 3 3 4 4 4 3 3 4 4 4 5 5 5 4 4 4 5 5 5 6 4 6 9 10 8 7 6 7 9 10 8 4 6
1 3 6 5 3 4 2 2 3 3 3 5 5 3 3 4 4 4 5 5 7 5 4 5 3 4 5 4 6 7 4 4 4 3 2 4 5 5 4 5 4 4 3 3 4 3 2 3 3 3 2 1 1 1 1 2 3 4 3 3 3 3 3 3 4 4 5 5 4 5 4 3 4 5 6 6 4 6 8 7 8 9 10 9 8 9 7
4 3 4 3 2 4 4 3 3 3 1 3 5 4 4 5 4 4 7 5 4 6 6 5 4 3 5 4 4 6 4 3 3 4 4 3 4 4 3 4 4 4 3 2 2 2 2 3 3 3 4 2 0 1 2 3 3 4 3 3 3 3 2 3 4 4 5 5 4 5 5 5 4 3 5 5 6 3 5 7 9 10 11 11 11 10 10
6 8 4 3 4 5 5 7 6 4 3 3 3 3 4 5 5 6 5 4 4 4 5 4 5 3 4 5 4 4 4 3 2 3 4 3 3 2 3 4 4 3 2 2 2 1 1 1 2 2 2 0 0 0 1 3 3 3 3 3 3 4 3 4 5 5 5 5 5 5 5 5 5 5 3 4 5 5 5 3 3 5 7 9 9 8 10
5 10 10 8 6 3 3 5 4 2 4 4 6 5 5 6 8 7 5 6 5 5 5 4 4 4 5 4 4 4 4 3 3 2 2 2 2 2 1 2 3 3 3 3 2 2 3 1 1 1 1 1 0 0 2 3 3 3 3 3 3 3 7 5 5 5 5 5 5 5 5 4 3 3 4 3 3 5 5 6 6 5 3 2 5 7 4
8 5 6 9 7 4 2 5 6 5 6 7 7 7 6 6 8 8 8 7 6 5 5 3 4 4 5 3 4 4 4 4 3 2 2 1 1 1 1 3 3 3 3 3 3 1 1 2 2 1 2 3 1 0 2 3 3 3 3 3 3 3 3 4 4 5 4 4 4 5 5 5 4 3 3 3 4 4 3 3 3 4 2 2 1 2 6
3 2 4 3 6 5 6 6 7 8 6 4 5 5 9 11 8 8 7 5 4 5 7 6 5 5 4 3 3 4 3 3 2 3 1 0 1 2 1 2 3 2 2 1 1 1 1 1 2 2 4 3 1 1 2 2 3 3 2 2 3 3 4 4 4 4 4 3 4 3 3 2 2 2 3 4 3 3 3 4 3 3 4 3 3 2 1
3 4 7 7 7 8 9 6 6 6 6 5 8 5 6 11 9 6 6 5 5 8 4 4 7 7 5 7 6 4 4 4 4 3 3 2 1 1 2 3 3 2 2 2 3 2 3 2 3 3 4 3 2 2 3 3 3 2 2 2 2 3 3 3 3 3 3 3 3 4 3 3 3 3 2 2 3 3 4 4 4 4 4 4 4 5 5
4 5 7 7 8 6 9 7 5 5 6 6 8 8 6 9 10 8 5 4 5 6 5 6 6 6 7 6 4 5 6 6 7 6 6 5 4 3 3 2 1 1 2 2 2 2 3 3 3 4 4 3 3 3 3 3 3 3 2 1 0 0 1 3 4 3 3 2 1 3 3 2 2 2 1 1 1 1 2 2 3 5 4 5 5 5 5
10 7 7 6 7 9 6 5 7 6 6 6 9 8 6 10 10 8 5 6 4 4 5 7 7 5 4 4 5 6 6 6 7 7 7 7 7 6 5 3 1 1 1 1 2 3 3 3 5 2 1 2 3 3 3 3 3 4 5 4 3 2 1 2 1 2 2 2 2 2 2 2 2 1 1 1 2 2 2 2 2 3 5 5 5 6 5
10 7 5 5 5 7 6 4 9 6 5 7 7 5 5 5 6 6 5 5 5 4 6 5 4 4 4 5 6 6 5 5 7 8 8 8 8 7 6 4 3 2 1 2 2 0 2 3 4 2 1 2 2 2 3 4 5 5 4 4 3 3 2 3 3 3 3 3 3 3 3 2 2 2 3 2 2 2 3 3 3 4 4 5 5 3 5
14 13 13 13 14 12 11 5 4 7 4 4 5 5 6 5 6 6 5 4 5 5 5 4 4 4 5 6 6 6 6 8 7 6 6 6 7 7 7 5 4 3 3 3 4 4 1 2 2 2 1 2 3 2 0 2 2 1 1 3 3 2 2 2 2 3 3 3 3 3 4 3 2 3 3 2 1 2 2 3 2 2 3 2 2 3 5
10 6 7 7 5 8 10 11 9 8 8 8 4 4 4 5 5 5 4 5 5 4 3 4 5 6 6 7 8 7 8 6 4 4 4 4 5 5 5 6 7 7 6 6 6 7 6 4 3 1 0 1 2 3 3 3 2 1 0 1 1 2 2 3 4 4 5 4 3 4 3 3 3 3 3 3 3 3 3 3 3 3 4 4 3 3 4
6 7 5 4 5 7 9 9 8 9 9 8 7 6 5 5 5 6 6 5 4 4 5 5 5 6 6 6 6 5 5 4 4 4 5 5 4 3 5 6 6 6 6 6 6 6 6 5 6 4 0 0 0 0 1 3 3 3 2 3 2 2 2 3 3 3 3 3 3 4 5 5 4 3 3 3 3 3 4 4 4 4 5 5 5 5 5
6 9 7 6 5 6 7 7 7 7 7 7 7 7 6 5 6 5 5 4 4 4 4 4 6 6 4 4 4 3 3 3 3 3 1 2 3 5 5 5 4 4 4 5 5 5 6 5 7 7 3 1 1 2 3 5 3 3 2 3 3 3 3 3 4 5 4 4 4 4 3 3 3 3 3 4 5 4 4 6 4 4 5 5 5 6 6
4 8 9 8 7 7 6 5 5 7 8 7 4 4 6 6 5 6 6 5 5 4 5 5 5 4 3 2 3 3 1 1 1 2 2 2 2 3 3 3 4 3 4 3 4 5 6 6 8 4 1 2 3 4 4 6 6 3 3 4 5 4 4 4 5 4 5 5 5 5 5 5 6 5 4 4 5 4 5 5 5 6 6 5 5 5 5
8 7 8 7 7 8 7 5 5 4 8 9 6 5 5 7 6 6 6 5 3 4 5 4 3 4 3 3 2 2 1 1 0 1 2 3 1 1 3 3 4 4 5 3 4 4 4 4 3 1 1 3 3 4 5 7 6 2 1 3 4 4 4 4 5 5 5 4 4 5 5 5 4 5 6 6 6 4 4 6 6 5 6 6 6 6 6
9 9 9 9 9 7 8 7 6 6 5 5 8 6 4 6 5 5 4 4 2 2 4 3 3 1 1 1 1 1 2 2 1 2 2 1 1 2 3 5 5 4 3 5 3 2 2 5 4 3 3 3 3 4 4 5 6 1 1 2 3 3 3 3 3 3 4 4 6 6 5 5 5 4 4 5 5 5 5 5 6 6 6 6 6 6 6
11 10 8 9 8 7 8 8 6 4 5 6 6 5 5 6 5 5 4 3 1 1 2 1 1 0 1 2 2 3 3 3 2 3 1 2 3 3 2 5 5 4 3 3 3 1 1 2 2 2 2 2 3 4 4 5 3 2 3 3 3 4 4 4 4 5 4 4 5 6 6 6 6 6 6 5 5 6 6 6 6 6 7 7 6 6 6
9 10 10 10 8 8 7 7 7 7 5 5 5 5 5 5 5 4 4 2 1 0 0 0 2 2 3 2 2 1 3 3 3 3 2 1 4 3 4 6 4 4 5 5 2 0 0 0 1 1 2 2 3 5 6 3 2 2 3 3 4 4 4 5 5 6 6 5 5 5 5 5 6 7 7 7 7 6 5 5 5 6 6 6 6 6 7
11 12 10 10 8 8 8 8 8 8 6 4 4 4 4 3 4 3 2 1 1 0 0 1 2 3 2 2 3 4 4 4 4 4 4 4 3 4 5 6 6 7 9 4 2 2 2 2 2 2 4 3 4 6 6 4 3 3 3 4 4 5 5 5 5 5 5 6 6 6 6 6 6 6 5 5 6 6 6 7 7 7 7 7 8 7 7
9 10 9 10 9 8 8 8 7 6 6 4 3 4 4 4 4 4 3 2 1 0 1 1 1 2 3 2 1 2 5 4 5 4 3 6 7 3 3 4 5 6 8 3 1 2 3 3 3 5 6 7 7 6 3 3 4 4 4 4 4 4 5 5 5 5 6 6 6 6 7 6 6 7 6 6 5 6 6 7 7 8 8 7 7 7 7
10 10 10 10 10 9 9 9 9 8 6 5 4 4 4 4 3 3 3 2 1 1 1 1 1 1 1 1 1 2 3 3 3 2 2 5 4 5 3 4 3 3 4 6 2 2 3 3 5 7 7 7 8 8 4 4 4 4 4 5 4 5 4 5 5 5 6 6 6 6 6 7 7 7 7 7 6 7 7 8 8 8 9 8 8 8 7
9 9 10 11 11 10 9 8 6 6 6 5 4 3 3 4 4 2 1 2 1 0 0 0 0 1 1 1 1 1 1 1 2 0 1 3 4 5 4 5 4 5 7 8 3 4 4 7 9 9 9 10 9 6 4 4 4 4 4 5 5 5 5 6 6 6 6 7 7 7 6 6 6 3 2 3 2 3 5 6 6 7 8 9 8 8 7
10 9 10 10 8 8 7 7 7 7 6 6 5 4 2 1 1 2 2 2 3 3 4 4 4 3 3 3 3 3 3 5 4 3 4 3 3 4 4 6 6 7 5 3 3 3 3 4 5 6 7 7 7 4 4 4 4 4 4 4 5 5 6 6 6 6 6 6 5 5 5 3 4 5 5 5 6 7 7 7 6 5 5 5 5 7 7
11 10 9 9 10 8 8 8 8 8 7 8 6 6 3 2 3 4 4 4 4 4 4 4 4 3 3 3 2 1 1 1 2 3 2 3 3 2 4 3 4 6 6 5 5 5 8 7 6 5 5 5 3 2 2 2 3 3 3 3 3 4 5 6 6 6 6 4 3 3 3 4 4 5 5 6 7 8 8 9 8 6 3 3 4 6 7
10 11 9 8 9 8 9 8 7 7 7 5 5 4 4 4 4 4 4 4 5 4 4 3 4 3 2 2 2 3 2 1 1 0 2 2 3 3 3 4 7 7 4 3 3 3 6 8 7 7 5 4 2 2 2 2 2 1 1 1 1 1 1 1 2 3 3 2 2 1 0 3 6 6 6 6 7 8 9 9 8 7 7 6 5 5 5
8 9 9 9 9 8 8 8 7 7 6 5 6 5 4 5 5 3 3 5 6 5 4 3 3 3 3 3 2 2 2 2 1 1 1 2 2 2 3 3 3 7 6 4 3 5 7 8 7 6 4 3 4 4 5 5 3 2 1 1 1 2 3 3 4 5 5 4 4 5 5 5 5 1 3 5 7 8 8 9 7 7 10 7 6 6 5
9 10 9 8 8 8 8 9 9 8 7 7 6 5 6 6 6 4 5 6 6 6 5 3 1 1 2 3 2 1 1 1 1 2 0 1 2 4 5 3 3 4 3 4 4 4 5 4 3 3 4 5 4 4 4 4 3 3 3 3 3 4 5 5 5 5 5 5 4 5 5 5 5 5 4 4 5 5 7 7 7 6 6 6 6 6 6
10 8 8 7 7 7 6 5 6 7 7 6 6 6 6 6 5 4 4 7 7 6 6 5 3 0 1 2 2 1 0 1 0 1 2 1 2 1 2 4 3 4 4 4 4 4 4 3 3 4 4 4 4 5 5 6 3 3 3 3 4 4 3 3 5 6 6 6 5 6 6 6 6 6 5 4 3 4 5 6 6 6 6 6 6 6 6
Wind_Direction
310 308 10 9 82 76 74 42 29 20 353 29 54 335 285 169 152 206 245 165 168 280 200 157 174 169 158 144 135 117 125 110 118 138 157 168 166 163 161 165 166 163 169 174 173 169 163 142 138 144 138 152 191 173 187 297 284 194 179 176 180 182 186 190 200 204 204 204 203 204 205 203 195 174 187 180 180 172 177 188 197 197 196 192 192 207 216
353 349 29 34 58 37 38 23 25 21 20 32 36 29 35 27 294 270 147 132 110 292 47 125 148 132 113 95 89 87 104 120 127 137 153 166 174 171 166 168 169 169 169 172 174 175 166 163 163 161 169 180 184 193 185 173 250 268 182 179 175 180 185 196 201 201 206 208 206 203 201 201 192 176 184 182 181 186 189 191 196 195 191 193 197 202 201
339 333 340 69 58 47 41 10 16 14 12 33 33 33 9 358 344 10 68 99 42 347 38 78 65 81 91 88 89 91 86 99 122 131 134 144 164 175 172 167 174 174 167 167 166 172 182 182 176 168 175 178 181 199 196 183 194 225 241 173 158 135 98 44 21 2 226 228 209 204 205 200 180 176 187 183 181 189 194 190 191 194 190 194 200 198 189
315 301 333 309 42 41 41 19 8 4 5 19 13 32 347 9 331 336 352 38 12 345 33 67 59 68 69 85 95 86 91 97 110 129 142 145 152 161 175 181 164 167 174 170 173 174 183 186 179 175 174 177 175 195 185 185 59 323 237 148 138 136 137 130 110 44 335 90 238 229 198 193 185 185 182 183 184 186 190 195 196 181 190 199 198 182 172
280 281 341 327 37 34 17 350 348 349 0 44 62 39 17 8 295 60 83 265 250 266 342 84 53 69 69 58 56 80 70 62 99 119 132 130 111 102 119 152 159 171 165 159 170 212 189 179 183 186 179 172 186 168 118 144 121 76 324 219 148 149 155 154 154 156 179 161 150 136 109 62 18 172 173 182 180 177 189 191 173 181 190 184 189 176 158
220 294 335 356 53 55 250 229 270 7 9 51 55 36 7 360 14 36 280 91 62 59 65 80 73 58 43 50 38 25 67 85 57 69 106 114 106 98 85 72 70 71 97 108 127 130 110 92 126 93 344 250 159 137 140 137 137 132 110 303 237 151 149 153 158 156 162 161 160 156 147 125 93 28 182 177 177 178 163 160 166 157 141 138 130 128 128
193 254 9 32 315 231 241 288 314 349 76 99 93 64 37 355 11 36 51 65 77 76 79 89 90 89 76 57 47 41 48 79 95 92 80 85 98 100 81 90 97 79 93 136 142 147 154 163 168 150 162 192 168 127 120 135 157 149 141 170 284 218 150 150 152 156 152 94 47 9 35 109 106 100 59 9 5 103 149 163 157 151 142 132 121 108 104
44 61 65 136 242 239 310 306 327 324 83 124 103 49 45 7 358 20 46 50 63 83 82 79 88 101 104 82 53 34 30 40 72 100 86 81 83 94 131 129 83 68 71 174 164 159 151 150 157 160 164 164 155 139 130 141 162 161 138 147 215 263 156 148 154 147 131 132 159 183 171 144 121 108 101 87 38 349 354 85 90 101 98 103 113 109 104
151 136 135 205 312 326 342 13 27 27 358 328 36 334 317 337 328 25 53 47 44 54 46 36 360 6 46 59 31 24 19 18 16 21 51 87 90 95 99 110 130 156 181 65 60 92 101 116 136 143 161 166 156 147 148 157 166 159 160 173 188 226 156 129 130 133 138 148 163 156 121 104 120 127 127 117 103 98 350 339 72 109 107 99 97 101 92
112 129 59 11 24 192 271 237 282 285 256 248 236 130 320 314 345 15 100 109 107 94 79 72 51 64 55 28 360 14 25 20 34 40 40 43 65 85 99 117 133 149 135 87 70 92 106 111 136 153 161 173 165 153 153 162 168 162 163 173 182 189 158 144 140 139 142 135 105 82 108 157 155 127 129 134 137 131 128 76 337 4 111 97 79 79 86
64 64 124 185 158 238 217 283 299 310 302 291 193 101 317 263 234 281 138 104 70 92 89 101 196 90 122 200 207 178 67 15 8 23 32 57 69 78 99 126 140 136 97 93 103 110 134 139 126 116 127 141 152 151 149 142 145 155 165 160 158 155 147 146 139 135 132 131 135 152 170 160 149 144 154 157 143 133 137 145 163 180 79 94 89 72 71
88 132 89 187 202 187 280 278 303 311 314 327 77 23 276 245 189 238 179 136 166 166 165 164 103 126 142 229 191 113 98 82 49 31 39 79 88 84 69 44 61 74 89 106 100 104 110 92 101 115 128 121 99 96 101 106 151 157 128 112 107 111 127 139 136 127 127 119 121 138 140 135 129 137 143 134 134 139 132 125 126 104 82 80 82 70 60
108 96 199 330 316 281 270 276 305 313 303 66 96 190 231 218 169 206 211 171 185 151 125 147 121 241 209 134 115 108 97 85 61 55 59 55 72 96 89 85 72 47 50 65 83 82 59 66 75 84 96 96 91 98 120 140 129 74 91 106 114 116 110 108 110 108 96 109 113 98 112 124 125 122 122 125 120 117 116 109 103 91 82 80 82 77 66
96 152 115 197 244 239 258 288 290 277 7 131 214 235 210 199 183 193 211 242 300 113 154 155 160 170 119 104 105 116 120 113 94 80 72 79 80 80 83 75 60 63 75 76 73 70 63 66 66 74 83 91 100 100 89 78 75 80 86 96 88 81 83 82 76 80 87 83 106 132 139 140 117 104 95 101 115 117 110 108 104 97 91 82 80 72 59
56 42 73 12 167 261 297 309 336 35 122 227 212 216 306 224 212 134 165 212 239 133 104 97 123 122 112 112 118 118 109 104 103 97 85 72 65 71 64 56 50 63 64 63 65 61 65 70 79 98 98 91 89 87 83 84 88 89 92 96 100 100 97 97 103 101 90 94 80 51 49 76 103 106 107 101 98 93 101 100 98 100 100 98 93 89 84
138 102 138 191 209 239 308 42 143 283 221 209 204 149 219 279 225 151 152 168 164 178 153 138 111 107 113 106 101 89 74 70 69 78 77 75 78 78 68 68 71 60 66 64 65 56 53 64 73 86 105 103 99 95 93 101 110 105 85 82 88 89 91 97 102 101 99 90 82 85 94 86 83 98 106 112 107 108 118 116 112 106 104 105 94 92 99
118 193 210 241 222 230 284 36 125 207 295 254 206 181 161 184 260 156 138 155 141 152 138 125 133 115 115 115 110 98 78 79 80 85 82 101 105 96 90 72 64 66 78 82 77 63 46 47 38 38 68 104 100 97 100 107 101 101 105 100 100 100 100 99 95 97 95 90 87 80 64 80 97 97 94 98 100 101 105 107 113 116 119 116 124 133 138
219 73 126 146 16 7 359 7 36 128 32 346 85 140 149 272 250 225 132 96 126 129 146 130 115 122 135 126 129 127 111 108 107 107 99 92 91 85 81 75 67 70 65 69 76 71 47 34 41 41 39 71 97 96 95 97 102 102 109 112 106 101 99 97 100 106 100 89 80 76 74 67 70 72 90 96 106 105 108 113 125 134 138 138 143 146 128
59 259 314 42 30 28 37 43 32 36 32 359 19 48 41 341 20 74 81 107 115 135 127 132 126 119 104 102 104 103 111 123 126 121 112 92 86 94 91 75 81 71 67 68 65 63 54 22 37 39 51 47 57 68 75 82 90 95 104 108 104 102 103 100 95 92 92 91 81 68 63 61 53 46 53 74 90 106 112 121 133 138 132 135 134 131 122
104 211 229 298 315 114 8 62 94 63 11 10 6 10 14 70 84 95 95 90 88 98 113 131 121 110 112 125 127 111 109 123 125 125 119 114 95 77 85 86 92 84 81 86 79 74 60 22 33 40 40 37 37 51 54 59 61 63 62 70 88 97 91 92 86 81 83 87 81 66 49 49 50 48 43 46 74 63 83 134 147 145 145 150 154 157 140
319 360 338 297 46 35 16 14 50 90 109 57 15 10 47 81 91 84 60 53 73 97 118 106 110 102 80 101 110 109 105 109 114 120 116 109 112 112 102 94 101 115 109 92 96 95 86 50 61 53 42 27 28 50 51 56 74 76 72 70 71 65 71 83 80 73 75 84 95 94 88 68 57 40 13 6 56 84 48 10 351 138 158 159 154 144 137
297 184 199 160 111 219 333 348 195 122 110 101 70 48 55 71 98 98 89 62 58 76 75 97 105 103 99 103 112 109 122 135 140 127 117 120 118 116 123 115 114 110 116 128 125 120 137 118 94 80 56 26 20 27 45 44 59 78 84 84 83 87 84 90 91 86 74 78 95 109 111 114 103 73 57 57 23 40 63 25 31 17 31 147 155 133 110
212 233 215 174 148 131 206 177 162 139 146 109 95 81 85 57 57 84 101 93 72 69 55 51 94 108 115 121 108 103 103 113 110 128 131 129 129 131 124 104 96 108 122 126 118 114 128 121 112 112 108 104 70 36 47 58 71 78 83 83 74 86 100 108 121 118 117 96 83 93 101 115 112 113 98 48 48 43 41 40 29 39 60 76 86 106 131
289 167 172 174 149 152 158 183 153 145 154 120 108 102 89 93 92 82 82 101 115 95 70 49 51 107 107 123 123 124 121 119 118 118 123 133 141 143 140 137 143 131 127 123 124 135 136 119 117 117 113 121 127 112 96 87 92 98 98 104 108 93 99 119 125 119 121 125 122 107 88 80 104 119 117 106 62 46 54 46 38 44 49 54 64 78 96
169 183 149 172 157 96 92 115 92 96 104 109 113 115 116 104 88 94 100 89 87 111 104 81 46 72 118 115 120 130 132 126 137 144 140 142 143 140 143 131 142 154 169 158 138 127 122 123 126 127 129 137 56 99 103 110 110 108 114 118 119 110 116 123 126 128 125 129 136 135 137 134 130 134 132 135 120 89 36 44 56 57 48 46 48 50 55
127 104 91 78 76 93 114 84 57 62 64 69 75 67 75 95 106 93 86 98 89 79 92 91 80 34 73 93 81 91 87 96 127 125 119 128 118 104 140 168 172 166 150 148 142 125 108 106 111 112 119 216 344 40 105 116 114 122 134 141 151 144 142 142 130 134 143 143 148 159 155 150 155 154 156 138 139 139 121 108 56 47 52 50 48 59 56
101 120 108 73 70 41 37 126 159 158 103 84 95 93 84 81 84 86 80 71 73 72 79 80 84 72 59 63 83 82 103 94 82 80 137 139 149 180 182 141 163 159 161 155 164 179 164 142 123 119 194 256 297 63 99 109 109 108 125 135 148 172 158 147 145 151 154 154 156 152 151 162 165 165 155 154 156 154 160 161 162 161 155 79 52 47 67
139 160 134 145 175 173 122 98 111 111 104 109 108 101 98 91 81 75 68 65 58 56 54 48 69 71 68 33 73 67 56 72 76 69 69 61 360 328 176 152 154 166 157 164 192 218 169 153 153 185 252 271 315 76 101 104 108 119 126 142 153 160 147 149 140 146 156 161 163 164 172 174 179 174 169 166 175 182 185 177 164 151 121 101 82 45 79
140 67 31 86 128 133 116 108 92 95 85 69 78 95 100 84 76 75 67 62 69 66 54 37 43 50 65 36 56 85 88 76 50 31 75 115 17 32 3 168 153 141 126 141 196 273 140 158 174 206 252 267 297 119 114 109 114 129 131 143 142 135 137 145 156 157 159 162 162 163 156 155 144 151 172 182 185 185 173 184 165 173 151 133 131 88 74
94 95 99 99 107 118 106 98 110 104 99 99 90 66 88 102 86 73 74 60 64 71 51 54 55 45 42 52 40 47 63 58 49 27 32 22 350 347 61 98 85 78 109 146 194 209 198 205 198 209 241 254 233 171 143 133 136 134 145 155 157 166 170 159 153 149 150 165 182 167 146 135 136 140 134 151 180 176 180 183 183 161 157 176 169 161 172
94 89 102 103 96 93 109 123 105 101 104 102 104 98 82 91 100 95 87 82 72 75 57 66 63 55 44 47 45 54 58 55 53 50 43 35 21 360 8 55 85 163 202 219 219 209 217 230 230 230 244 235 217 192 167 149 150 144 130 143 135 180 194 173 149 153 166 171 177 159 152 147 155 152 160 154 127 148 180 188 173 169 176 172 179 181 189
102 85 83 94 110 109 102 107 108 113 122 123 108 108 124 116 115 116 109 88 91 98 82 64 59 58 50 45 52 51 54 52 46 39 34 36 34 23 4 9 19 20 264 239 207 201 209 216 250 269 357 264 246 197 180 168 151 157 184 195 198 190 154 179 158 156 164 189 184 182 181 171 193 182 195 190 180 185 180 161 162 174 173 177 196 198 176
116 105 92 105 99 110 117 140 126 130 128 117 116 124 110 105 109 109 112 119 100 78 79 78 66 51 48 52 50 48 52 59 48 38 29 21 13 12 9 4 7 15 2 346 343 246 180 211 242 237 202 183 232 252 212 185 179 185 189 189 191 191 180 168 174 174 195 186 188 193 210 215 218 213 213 204 195 174 172 182 182 182 184 196 206 177 180
159 171 174 172 158 157 152 161 135 115 94 86 113 119 115 110 111 110 106 94 87 79 78 81 70 61 55 55 54 52 52 52 40 30 20 16 9 2 357 5 13 12 359 351 4 358 321 262 263 277 231 172 151 129 55 6 337 321 212 172 167 179 185 173 169 184 202 208 200 206 198 213 214 216 227 227 208 179 183 173 171 166 172 168 167 160 168
168 158 151 156 142 143 142 145 150 137 133 124 114 110 119 123 117 122 120 96 93 114 109 85 72 66 61 53 49 45 52 61 60 52 35 25 16 360 355 12 16 18 11 12 17 360 333 312 293 276 99 142 142 132 125 121 123 110 123 191 165 168 205 185 183 201 210 218 197 200 208 216 224 222 221 217 215 203 188 169 157 152 154 154 149 137 148
117 112 117 121 138 141 140 144 146 145 140 137 138 134 124 118 106 99 99 105 122 103 88 83 78 74 68 69 69 70 70 62 50 38 26 18 4 8 26 29 21 18 2 356 5 357 345 338 324 310 60 31 89 231 143 140 127 128 152 161 185 185 185 208 221 229 225 211 211 211 214 216 211 212 216 218 208 191 178 168 169 170 164 161 150 138 129
148 140 141 134 132 134 131 132 137 133 126 126 126 116 111 108 110 118 113 102 91 88 97 93 77 79 92 108 121 117 113 114 104 87 47 353 2 23 20 15 21 14 1 6 329 331 334 333 339 317 300 321 306 266 259 237 208 201 180 174 182 217 232 218 216 218 237 230 220 217 216 212 207 213 205 183 189 188 175 171 175 169 166 158 152 140 135
131 135 137 134 127 115 109 112 118 117 112 97 89 109 118 113 103 92 86 85 88 93 89 88 104 121 130 127 86 90 108 99 93 60 34 31 25 35 15 17 338 345 340 300 307 329 315 320 338 346 309 276 280 291 299 296 288 250 216 220 216 215 222 233 246 243 235 229 227 219 212 206 205 213 211 199 192 180 174 171 170 167 164 153 144 139 139
93 86 93 103 107 109 108 100 97 92 107 113 112 94 91 98 98 91 83 86 108 114 99 110 115 86 70 63 35 2 345 305 309 14 16 357 355 30 310 276 256 241 241 271 307 302 299 320 344 335 298 290 305 313 306 311 335 19 300 291 280 260 247 235 232 234 236 235 230 224 217 219 216 214 211 207 200 192 176 168 168 160 154 153 150 151 149
118 120 124 118 112 112 104 98 94 96 95 103 109 111 106 93 90 94 93 76 48 91 106 104 83 76 51 42 13 304 277 282 289 313 329 353 14 2 327 312 287 278 271 278 277 267 348 22 35 15 308 285 276 278 285 288 295 290 255 240 244 257 274 277 268 253 244 230 231 232 215 211 214 220 225 218 204 188 174 161 150 151 154 158 157 152 146
128 124 117 110 112 110 111 108 98 92 94 90 92 106 109 114 113 99 111 130 177 56 86 107 102 289 238 240 232 243 262 283 297 293 313 23 341 342 345 297 287 292 290 287 257 240 40 39 29 26 305 278 269 267 267 278 281 266 247 234 232 230 234 243 251 253 252 243 235 233 232 225 221 214 212 211 204 191 172 161 161 161 161 164 165 156 147
130 122 118 115 115 112 106 108 106 93 86 99 110 110 119 128 126 144 171 165 141 45 36 315 223 230 241 247 249 290 303 296 314 311 317 278 270 277 296 284 268 281 295 305 280 215 44 304 292 241 250 267 273 284 283 283 272 245 241 242 241 239 235 237 236 236 230 226 226 232 242 243 232 222 208 192 185 177 161 153 153 162 168 158 151 152 149
135 131 129 125 123 123 124 122 119 124 124 125 127 135 142 127 114 119 119 137 160 157 270 322 331 331 333 326 332 326 306 317 325 316 323 292 239 211 222 250 292 301 306 309 268 263 261 255 256 260 268 271 277 284 299 310 306 285 268 259 253 249 247 247 244 243 235 230 227 218 214 214 223 229 216 197 188 181 174 168 167 166 161 156 150 153 158
136 129 131 131 133 133 127 123 125 125 127 160 172 148 138 141 148 149 152 145 129 168 175 256 296 288 280 274 281 291 295 305 307 315 345 317 328 304 208 232 264 279 296 292 285 260 261 260 265 268 281 284 286 286 289 290 299 295 286 275 267 264 263 259 255 247 241 236 231 226 220 211 202 209 214 211 197 191 193 188 180 169 163 154 156 153 151
140 140 140 139 138 134 135 139 144 151 157 155 151 139 133 139 152 148 141 155 170 202 206 216 231 265 315 351 247 256 268 281 280 300 321 313 319 296 299 318 320 327 322 322 320 295 285 287 284 294 295 290 286 288 296 302 294 291 288 290 287 276 266 263 259 255 250 246 242 235 230 226 219 210 207 205 191 189 194 191 178 165 156 155 152 149 149
140 141 139 136 140 149 154 148 142 128 127 128 128 136 144 153 158 155 159 162 179 231 246 211 112 76 119 94 44 36 9 356 349 318 231 229 237 273 306 343 337 343 351 1 5 343 328 318 317 312 307 306 305 309 308 296 291 286 281 276 274 275 273 271 269 260 248 240 237 234 233 236 232 221 165 160 189 211 209 177 160 163 160 151 153 150 149
141 142 146 145 145 143 138 134 134 127 123 123 136 172 194 157 150 161 162 128 110 93 90 88 86 76 81 97 92 55 24 357 345 26 18 2 359 359 5 359 357 350 353 1 343 337 328 322 318 314 313 309 311 303 298 297 295 286 281 273 271 267 266 261 259 256 249 239 235 229 221 198 171 154 143 124 108 98 82 64 39 33 55 92 122 132 134
146 147 148 145 144 143 132 134 133 142 151 162 172 179 161 148 128 107 105 113 108 98 93 89 88 76 73 62 56 84 144 128 332 309 358 359 348 349 354 343 337 342 349 353 359 359 360 3 351 347 341 348 354 344 324 309 305 307 304 293 284 275 271 266 259 249 239 228 213 185 162 149 155 156 150 140 136 129 126 128 128 114 103 139 149 143 140
149 148 148 142 138 140 142 148 150 156 172 177 160 169 160 146 131 120 112 115 114 105 96 86 80 65 49 63 74 38 22 45 122 229 308 350 349 359 347 349 352 9 21 21 1 338 348 360 358 354 351 358 349 356 16 12 6 8 10 9 2 351 338 352 2 351 345 349 21 23 151 152 161 157 148 137 130 126 120 119 132 145 160 157 149 144 138
141 136 140 148 148 153 153 152 160 173 173 163 170 163 153 138 133 155 145 138 133 119 103 87 74 69 68 58 38 28 34 48 30 17 343 333 333 349 12 359 357 16 23 19 358 356 347 353 353 1 3 355 358 14 17 19 17 23 21 21 39 41 54 74 68 61 59 58 57 63 49 20 360 18 112 130 133 131 131 135 142 143 144 148 146 148 153
153 155 160 161 160 161 163 163 169 167 166 174 168 156 158 155 165 169 157 147 132 124 116 107 62 50 92 80 46 41 35 14 358 36 352 339 4 16 29 26 17 29 27 22 9 349 339 332 336 359 4 12 16 28 33 28 13 17 25 26 35 47 50 53 63 67 72 82 78 71 63 58 58 52 52 88 110 125 130 132 138 146 154 157 154 156 152
154 149 145 147 153 158 164 167 164 165 168 159 155 158 163 162 154 156 166 159 148 147 150 134 116 235 204 139 104 53 337 150 116 339 15 33 42 27 13 29 21 17 14 12 2 348 346 344 359 12 24 30 35 34 31 33 23 11 6 16 30 36 46 57 69 71 59 58 67 76 80 85 83 70 50 46 80 107 119 134 142 148 152 151 150 148 152